Regional Weather Roundup
Issued by NWS

Home | Current Version | Previous Version | Text Only | Print | Product List | Glossary Off
Versions: 1 2 3 4 5 6 7 8 9 10 11 12 13 14 15 16 17 18 19 20 21 22 23 24 25 26 27 28 29 30 31 32 33 34 35 36 37 38 39 40 41 42 43 44 45 46 47 48 49 50

000
ASUS43 KDTX 280410
RWRMI
MICHIGAN HOURLY REGIONAL WEATHER ROUNDUP
NATIONAL WEATHER SERVICE DETROIT/PONTIAC MI
1200 AM EDT SUN AUG 28 2016

NOTE: "FAIR" INDICATES FEW OR NO CLOUDS BELOW 12,000 FEET WITH NO
SIGNIFICANT WEATHER AND/OR OBSTRUCTION TO VISIBILITY.

MIZ047>049-052>055-059>063-066>070-074>076-081>083-280500-
SOUTHEAST LOWER MICHIGAN

CITY           SKY/WX    TMP DP  RH WIND       PRES   REMARKS
ADRIAN         FOG       69  69 100 CALM      30.14F VSB 1/2
ALMA           PTCLDY    70  70 100 SW9       30.10S FOG
ANN ARBOR      CLOUDY    70  70 100 S5        30.13S FOG
BAD AXE        MOCLDY    68  68 100 S8        30.12S
CARO           CLOUDY    69  69  98 S3        30.11S FOG
DETROIT CITY   CLEAR     72  71  97 W3        30.13R
DETROIT        PTCLDY    72  71  97 CALM      30.14S FOG
FLINT          CLOUDY    74  69  85 S6        30.12S
GROSSE ILE     MOCLDY    74  72  92 SW9       30.12R
HILLSDALE      CLOUDY    71  70  96 CALM      30.15R FOG
HOWELL         CLOUDY    72  71  95 S5        30.13S

CITY           SKY/WX    TMP DP  RH WIND       PRES   REMARKS
JACKSON        CLEAR     72  72 100 S9        30.13S
LAMBERTVILLE   PTCLDY    72  70  93 CALM      30.14R FOG
LANSING        MOCLDY    72  69  90 S8        30.12R
LAPEER         CLOUDY    70  69  96 SE6       30.14S
MASON          PTCLDY    72  70  94 S5        30.12S FOG
MONROE         PTCLDY    72  71  99 W3        30.12S
MT. CLEMENS    CLEAR     69  69 100 W2        30.11R
PONTIAC        CLOUDY    72  70  93 S6        30.13S
PORT HURON     MOCLDY    66  66 100 CALM      30.14R FOG
TRI CITIES     CLEAR     71  70  96 S8        30.10F
MIDLAND        FAIR      70  70 100 S6        30.09R
TROY           CLOUDY    72  69  91 CALM      30.15S
SAGINAW HB     MOCLDY    70  68  94 S8        30.09F
$$
MIZ043>046-050>051-056>058-064>065-071>073-077>080-280500-
SOUTHWEST LOWER MICHIGAN

CITY           SKY/WX    TMP DP  RH WIND       PRES   REMARKS
BATTLE CREEK   CLEAR     71  71 100 S8        30.12R
BENTON HARBOR  PTCLDY    74  71  91 S5        30.09R
BIG RAPIDS     PTCLDY    69  68  96 S3        30.08F
COLDWATER      CLEAR     71  71 100 SE5       30.13S FOG
FREMONT        MOCLDY    71  70  96 SE6       30.06S
HOLLAND        PTCLDY    73  70  90 S5        30.09R
GRAND RAPIDS   CLOUDY    73  70  90 S7        30.10R
IONIA          RAIN      72  70  95 S7        30.09S
KALAMAZOO      CLEAR     75  70  84 S6        30.11R
LUDINGTON      CLOUDY    71  71 100 CALM      30.05F FOG
MARSHALL       CLEAR     72  72 100 S3        30.12R
MOUNT PLEASANT PTCLDY    70  69  96 CALM      30.08S
MUSKEGON       CLOUDY    75  71  87 S9        30.06S THUNDER
SOUTH HAVEN    CLEAR     76  74  93 SW3       30.09R
$$
MIZ016>042-280500-
NORTHERN LOWER MICHIGAN

CITY           SKY/WX    TMP DP  RH WIND       PRES   REMARKS
ALPENA         MOCLDY    68  66  93 SW3       30.07S
BEAVER ISLAND  CLOUDY    65  65 100 CALM      30.03S
BELLAIRE       MOCLDY    71  67  85 S3        30.05R
CADILLAC       CLOUDY    68  67  95 SW8       30.08S
CHARLEVOIX     LGT RAIN  69  68  98 CALM      30.06F
FRANKFORT      CLOUDY    69  67  92 CALM      30.06R
GAYLORD        CLOUDY    69  65  86 S9        30.08R
GRAYLING       CLOUDY    69  68  94 S5        30.09S
HARBOR SPRINGS RAIN      67  66  97 CALM      30.04S
HOUGHTON LAKE  CLOUDY    69  67  93 S5        30.10S
MANISTEE       CLOUDY    70  69  97 CALM      30.06R
OSCODA         MOCLDY    71  69  95 SW6       30.08S
PELLSTON       HVY RAIN  66  65  96 SW3       30.05S VSB 1/2
ROGERS CITY    MOCLDY    69  66  90 S5        30.07S
TRAVERSE CITY  CLOUDY    72  68  87 SW5       30.05R
$$
MIZ007>008-015-280500-
EASTERN UPPER MICHIGAN

CITY           SKY/WX    TMP DP  RH WIND       PRES   REMARKS
KINROSS        CLOUDY    66  65  96 S8        30.05S
MACKINAC ISLAN CLOUDY    67  67 100 SE9       30.04S
NEWBERRY       CLOUDY    62  61  97 CALM      30.03S
S. S. MARIE    HVY RAIN  65  64  97 VRB3      30.04F FOG
$$
MIZ004>006-011>014-085-280500-
CENTRAL UPPER MICHIGAN

CITY           SKY/WX    TMP DP  RH WIND       PRES   REMARKS
MANISTIQUE     FOG       63  61  93 CALM      30.04R VSB 1/2
ESCANABA       CLOUDY    63  62  97 CALM      30.05R
MENOMINEE      CLOUDY   N/A N/A N/A CALM        N/A
SAWYER-GWINN   CLOUDY    61  59  92 W3        30.08R
$$
MIZ001>003-009>011-084-280500-
WESTERN UPPER MICHIGAN

CITY           SKY/WX    TMP DP  RH WIND       PRES   REMARKS
IRON MOUNTAIN  CLOUDY    63  58  83 SW5       30.07R
HOUGHTON       CLOUDY    63  61  93 E3        30.05S
IRONWOOD       CLOUDY    61  60  97 CALM      30.07R
$$

ABBREVIATIONS USED IN REMARKS
   TC - TEMPERATURE IN CELSIUS
  WCI - WIND CHILL INDEX
   HX - HEAT INDEX
  VSB - VISIBILITY





USA.gov is the U.S. government's official web portal to all federal, state and local government web resources and services.